VA3PPY Weather Reports


Display with metric or nautical units.
time (UTC)temp
F
wind
direction
speed
MPH
gust
MPH
rain 1hr
in
rain 24hr
in
rain mn
in
humidity
%
barometer
mb
20260831163002 71 158 0.0 0.0 0.03 1.10 0.56 96 1016.2
20260831161502 71 158 0.0 2.0 0.08 1.10 0.56 96 1016.6
20260831160004 71 158 0.0 0.0 0.22 1.08 0.55 96 1016.8
20260831154502 71 158 0.0 0.0 0.22 1.26 0.54 96 1016.7
20260831153005 71 158 0.0 0.0 0.23 1.26 0.54 95 1016.2
20260831151507 72 158 1.0 4.0 0.17 1.20 0.48 95 1015.8
20260831150003 73 159 0.0 0.0 0.02 1.05 0.33 95 1015.6
20260831144509 74 159 0.0 0.0 0.00 1.07 0.31 95 1015.4
20260831143003 73 159 0.0 2.0 0.00 1.07 0.31 96 1015.1
20260831141507 73 160 0.0 3.0 0.00 1.07 0.31 96 1015.0
20260831140003 72 160 2.0 5.0 0.00 1.07 0.31 97 1015.1
20260831134503 72 176 0.0 4.0 0.00 1.09 0.31 97 1015.0
20260831133003 71 176 0.0 2.0 0.00 1.09 0.31 97 1014.6
20260831131505 71 176 0.0 1.0 0.00 1.09 0.31 97 1014.5
20260831130004 70 176 0.0 0.0 0.01 1.09 0.31 97 1014.7
20260831124503 69 176 0.0 1.0 0.02 1.19 0.31 97 1014.7
20260831123003 69 176 0.0 1.0 0.05 1.19 0.31 97 1014.8
20260831121507 69 176 0.0 2.0 0.05 1.19 0.31 97 1014.4
20260831120003 68 176 0.0 4.0 0.05 1.18 0.30 97 1014.4
20260831114503 68 164 0.0 5.0 0.10 1.19 0.28 97 1015.1
20260831113004 68 164 0.0 0.0 0.12 1.15 0.26 97 1015.4
20260831111511 68 164 0.0 0.0 0.15 1.15 0.26 97 1015.4
20260831110005 68 164 0.0 0.0 0.14 1.14 0.25 97 1015.5
20260831104503 68 164 0.0 0.0 0.08 1.09 0.19 97 1015.4
20260831103004 68 164 0.0 0.0 0.03 1.03 0.13 97 1015.3
20260831101504 68 164 0.0 1.0 0.01 1.01 0.11 97 1015.1
20260831100008 68 164 0.0 1.0 0.01 1.01 0.11 96 1015.0
20260831094508 68 164 0.0 0.0 0.02 1.01 0.11 96 1015.0
20260831093005 68 164 0.0 0.0 0.01 1.00 0.10 96 1014.9
20260831091504 68 164 0.0 0.0 0.01 1.00 0.10 96 1015.0
20260831090005 68 164 0.0 0.0 0.01 1.00 0.10 96 1014.8
20260831084504 68 164 0.0 0.0 0.00 0.99 0.09 96 1015.1
20260831083015 68 164 0.0 1.0 0.00 0.99 0.09 96 1014.9
20260831081504 68 164 0.0 1.0 0.00 0.99 0.09 96 1014.7
20260831080017 68 164 0.0 2.0 0.00 0.99 0.09 96 1014.8
20260831074504 68 164 0.0 1.0 0.00 0.99 0.09 96 1014.8
20260831073016 68 164 0.0 1.0 0.01 0.99 0.09 96 1014.9
20260831071504 68 164 0.0 2.0 0.02 0.99 0.09 96 1015.2
20260831070005 68 164 0.0 1.0 0.03 0.99 0.09 96 1015.3
20260831064505 67 164 0.0 4.0 0.05 0.99 0.09 96 1015.3
20260831063005 67 164 0.0 1.0 0.08 0.98 0.08 95 1015.3
20260831061505 67 164 0.0 4.0 0.07 0.97 0.07 95 1015.4
20260831060004 67 138 1.0 7.0 0.06 0.96 0.06 95 1015.6
20260831054505 66 169 0.0 2.0 0.04 0.94 0.04 95 1015.7
20260831053008 66 169 0.0 3.0 0.00 0.90 0.00 94 1015.7
20260831051510 66 169 0.0 5.0 0.00 0.90 0.00 94 1015.6
20260831050005 66 188 0.0 6.0 0.00 0.90 0.00 94 1015.7
20260831044512 66 143 0.0 4.0 0.00 0.90 0.00 94 1015.7
20260831043005 66 159 0.0 8.0 0.00 0.90 0.00 94 1015.7
20260831041510 65 129 1.0 6.0 0.00 0.90 0.00 94 1015.7
20260831040006 65 84 0.0 7.0 0.00 0.90 0.00 94 1015.8
20260831034505 65 85 0.0 5.0 0.00 0.90 0.90 94 1015.6
20260831033008 65 94 1.0 4.0 0.00 0.90 0.90 95 1015.5
20260831031505 64 143 0.0 3.0 0.00 0.90 0.90 95 1015.5
20260831030006 64 143 0.0 3.0 0.00 0.90 0.90 95 1015.4
20260831024506 64 143 0.0 2.0 0.00 0.90 0.90 95 1015.5
20260831023005 64 143 0.0 2.0 0.00 0.90 0.90 95 1015.5
20260831021506 64 159 0.0 3.0 0.00 0.90 0.90 95 1015.4
20260831020006 64 140 0.0 3.0 0.00 0.90 0.90 95 1015.4
20260831014506 64 143 0.0 3.0 0.00 0.90 0.90 95 1015.5
20260831013006 64 136 1.0 3.0 0.01 0.90 0.90 96 1015.6
20260831011505 64 138 0.0 3.0 0.02 0.90 0.90 96 1015.8
20260831010006 64 159 1.0 4.0 0.04 0.90 0.90 96 1015.8
20260831004505 65 148 0.0 3.0 0.04 0.90 0.90 96 1015.7
20260831003006 65 148 0.0 3.0 0.07 0.89 0.89 96 1015.7
20260831001506 65 148 1.0 5.0 0.06 0.88 0.88 96 1015.8
20260831000016 66 170 2.0 7.0 0.04 0.86 0.86 96 1016.1
20260830234506 66 71 0.0 5.0 0.05 0.86 0.86 96 1016.2
20260830233006 66 148 1.0 10.0 0.02 0.82 0.82 96 1016.5
20260830231507 66 191 0.0 6.0 0.02 0.82 0.82 96 1016.1
20260830230013 66 156 0.0 9.0 0.03 0.82 0.82 96 1016.5
20260830224507 67 140 1.0 3.0 0.02 0.81 0.81 97 1016.7
20260830223007 67 140 0.0 3.0 0.02 0.80 0.80 97 1016.9
20260830221506 67 140 0.0 4.0 0.02 0.80 0.80 97 1016.8
20260830220007 67 140 0.0 0.0 0.01 0.79 0.79 97 1016.5
20260830214507 67 140 0.0 1.0 0.03 0.79 0.79 97 1016.0
20260830213013 67 140 0.0 2.0 0.02 0.78 0.78 97 1015.8
20260830211507 66 140 0.0 6.0 0.02 0.78 0.78 96 1015.4
20260830210007 66 129 0.0 3.0 0.03 0.78 0.78 96 1015.3
20260830204507 66 131 1.0 12.0 0.02 0.76 0.76 97 1015.4
20260830203007 66 151 3.0 8.0 0.04 0.76 0.76 96 1015.7
20260830201507 67 107 0.0 3.0 0.07 0.76 0.76 97 1016.1
20260830200008 67 107 0.0 0.0 0.08 0.75 0.75 97 1016.3
20260830194507 66 107 0.0 2.0 0.09 0.74 0.74 96 1016.4
20260830193008 66 107 0.0 2.0 0.10 0.71 0.71 96 1016.5
20260830191507 66 107 0.0 0.0 0.11 0.69 0.69 96 1016.7
20260830190008 65 107 0.0 0.0 0.09 0.67 0.67 96 1016.8
20260830184516 65 107 0.0 1.0 0.09 0.65 0.65 96 1016.9
20260830183008 65 107 0.0 1.0 0.06 0.61 0.61 96 1016.9
20260830181508 65 107 0.0 1.0 0.03 0.57 0.57 96 1016.9
20260830180015 65 107 0.0 1.0 0.05 0.57 0.57 96 1016.9
20260830174508 65 107 0.0 2.0 0.04 0.56 0.56 96 1017.1
20260830173008 65 107 0.0 2.0 0.04 0.55 0.55 96 1017.2
20260830171508 65 107 0.0 2.0 0.08 0.54 0.54 96 1017.3
20260830170008 65 107 0.0 0.0 0.15 0.53 0.53 96 1017.6
20260830164528 65 107 0.0 2.0 0.24 0.52 0.52 96 1017.5